Indianapolis, IN

6:54 AM EST on November 20, 2019 (GMT -0500)
Indianapolis International

Weather History for KIND - September, 2019

Change the Weather History Date:

Sunday, September 29, 2019

  Actual Average Record
Temperature  
Mean Temperature 78 °F 61 °F  
Max Temperature 87 °F 72 °F 97 °F (1953)
Min Temperature 68 °F 50 °F 34 °F (1970)
Degree Days  
Heating Degree Days 0 6  
Month to date heating degree days 0 64  
Since 1 July heating degree days 0 68  
Cooling Degree Days 13 2  
Month to date cooling degree days 253 127  
Year to date cooling degree days 1292 1048  
Growing Degree Days 28 (Base 50)    
Moisture  
Dew Point 67 °F    
Average Humidity 73    
Maximum Humidity 91    
Minimum Humidity 55    
Precipitation  
Precipitation 0.07 in 0.10 in 2.45 in (1955)
Month to date precipitation 0.47 3.01  
Year to date precipitation 37.02 32.34  
Snow  
Snow 0.00 in 0.00 in 0.00 in ()
Month to date snowfall 0.0 0.0  
Since 1 July snowfall 0.0 0.0  
Since 1 September snowfall 0.0 0.0  
Snow Depth 0.00 in    
Sea Level Pressure  
Sea Level Pressure 30.13 in    
Wind  
Wind Speed 7 mph (East)    
Max Wind Speed 17 mph    
Max Gust Speed 23 mph    
Visibility 10 miles    
Events Rain    
T = Trace of Precipitation, MM = Missing Value Source: NWS Daily Summary

Daily Weather History Graph

Daily Weather History Graph

Search for Another Location

Airport or City:

Astronomy

Sep. 29, 2019 Rise Set
Actual Time 7:39 AM EDT 7:31 PM EDT
Civil Twilight 7:12 AM EDT 7:57 PM EDT
Nautical Twilight 6:41 AM EDT 8:29 PM EDT
Astronomical Twilight 6:09 AM EDT 9:00 PM EDT
Moon 8:29 AM EDT (9/29) 8:31 PM EDT (9/29)
Length of Visible Light 12h 45m
Length of Day
11h 51m
New Moon, 1% of the Moon is Illuminated
Sep 29
New Moon
Oct 5
First Quarter
Oct 13
Full
Oct 21
Last Quarter
Oct 27
New

Hourly Weather History & Observations

Time (EDT) Temp. Heat Index Dew Point Humidity Pressure Visibility Wind Dir Wind Speed Gust Speed Precip Events Conditions
12:54 AM 72.0 °F - 63.0 °F 73% 30.15 in 10.0 mi ENE 10.4 mph - N/A   Partly Cloudy
1:54 AM 70.0 °F - 63.0 °F 78% 30.14 in 10.0 mi East 9.2 mph - N/A   Partly Cloudy
2:54 AM 69.1 °F - 63.0 °F 81% 30.14 in 10.0 mi East 10.4 mph - N/A   Partly Cloudy
3:54 AM 69.1 °F - 63.0 °F 81% 30.14 in 10.0 mi East 10.4 mph - N/A   Partly Cloudy
4:54 AM 68.0 °F - 63.0 °F 84% 30.14 in 10.0 mi ESE 6.9 mph - N/A   Scattered Clouds
5:54 AM 68.0 °F - 63.0 °F 84% 30.14 in 10.0 mi East 8.1 mph - N/A   Scattered Clouds
6:54 AM 68.0 °F - 63.0 °F 84% 30.15 in 10.0 mi East 6.9 mph - N/A   Mostly Cloudy
7:54 AM 68.0 °F - 64.0 °F 87% 30.16 in 10.0 mi ESE 8.1 mph - N/A   Mostly Cloudy
8:54 AM 69.1 °F - 64.0 °F 84% 30.16 in 10.0 mi ESE 6.9 mph - N/A   Overcast
9:54 AM 71.1 °F - 64.9 °F 81% 30.16 in 10.0 mi SE 9.2 mph - N/A   Overcast
10:54 AM 73.9 °F - 66.0 °F 76% 30.16 in 10.0 mi SSE 10.4 mph - N/A   Overcast
11:54 AM 71.1 °F - 66.9 °F 87% 30.18 in 6.0 mi NNW 12.7 mph - 0.00 in Rain Light Rain
12:54 PM 73.0 °F - 69.1 °F 87% 30.15 in 10.0 mi East 4.6 mph - 0.03 in Rain Light Rain
1:54 PM 79.0 °F - 70.0 °F 74% 30.14 in 10.0 mi Calm Calm - 0.01 in   Mostly Cloudy
2:54 PM 84.0 °F 88.4 °F 70.0 °F 63% 30.11 in 10.0 mi SSW 5.8 mph - N/A   Mostly Cloudy
3:54 PM 86.0 °F 89.4 °F 68.0 °F 55% 30.10 in 10.0 mi WSW 9.2 mph - N/A   Overcast
4:54 PM 82.9 °F 86.5 °F 69.1 °F 63% 30.09 in 10.0 mi NNE 4.6 mph - 0.00 in Rain Light Rain
5:54 PM 81.0 °F 85.2 °F 72.0 °F 74% 30.10 in 10.0 mi Calm Calm - 0.03 in   Mostly Cloudy
6:54 PM 79.0 °F - 75.0 °F 88% 30.10 in 9.0 mi ESE 4.6 mph - N/A   Mostly Cloudy
7:54 PM 78.1 °F - 73.9 °F 87% 30.11 in 10.0 mi SE 4.6 mph - N/A   Mostly Cloudy
8:54 PM 77.0 °F - 73.0 °F 88% 30.11 in 10.0 mi North 8.1 mph - N/A   Mostly Cloudy
9:54 PM 75.9 °F - 71.1 °F 85% 30.11 in 10.0 mi East 4.6 mph - N/A   Scattered Clouds
10:54 PM 75.0 °F - 70.0 °F 84% 30.11 in 10.0 mi East 6.9 mph - N/A   Scattered Clouds
11:54 PM 73.9 °F - 70.0 °F 87% 30.11 in 10.0 mi ESE 8.1 mph - N/A   Scattered Clouds